[Iaude] MPEC T175: 2023 TY6 [a=2.61,e=0.55,i=5.9,H=20.6]
    mpec at marsden.cfa.harvard.edu 
    mpec at marsden.cfa.harvard.edu
       
    Thu Oct 12 01:52:44 EDT 2023
    
    
  
M.P.E.C. 2023-T175                             Issued 2023 October 12, 05:51 UT
     The Minor Planet Electronic Circulars contain information on unusual
         minor planets, routine data on comets and natural satellites,
         and occasional editorial announcements.  They are published
    on behalf of Division F of the International Astronomical Union by the
          Minor Planet Center, Smithsonian Astrophysical Observatory,
                          Cambridge, MA 02138, U.S.A.
			  
             Prepared using the Tamkin Foundation Computer Network
                              MPC at CFA.HARVARD.EDU
            URL https://www.minorplanetcenter.net/    ISSN 1523-6714
                                    2023 TY6                                    
Observations:
     K23T06Y 1C2023 09 24.48103 05 38 52.02 +30 14 45.6          20.8 GVET175G96
     K23T06Y 1C2023 09 24.48640 05 38 52.91 +30 14 49.9                VET175G96
     K23T06Y*1C2023 10 09.47226306 19 31.555+32 47 25.91         21.22GVET175G96
     K23T06Y 1C2023 10 09.47797206 19 32.308+32 47 28.79         20.67GVET175G96
     K23T06Y 1C2023 10 09.48936606 19 33.787+32 47 34.94         20.80GVET175G96
     K23T06Y KC2023 10 09.50519406 19 35.810+32 47 43.01         21.58GVET175I52
     K23T06Y KC2023 10 09.50739906 19 36.142+32 47 44.05         21.50GVET175I52
     K23T06Y KC2023 10 09.50961006 19 36.394+32 47 45.42         21.30GVET175I52
     K23T06Y KC2023 10 09.51182606 19 36.707+32 47 46.54         21.23GVET175I52
     K23T06Y KC2023 10 10.38226406 21 34.160+32 55 03.40         20.96GVET175I52
     K23T06Y KC2023 10 10.38517106 21 34.520+32 55 05.80         21.23GVET175I52
     K23T06Y  C2023 10 11.45742406 23 53.811+33 03 59.70         22.3 GVET175H01
     K23T06Y KC2023 10 11.45879306 23 54.064+33 04 00.52         22.61GVET175V06
     K23T06Y  C2023 10 11.46099406 23 54.256+33 04 01.47         22.0 GVET175H01
     K23T06Y KC2023 10 11.46218806 23 54.474+33 04 02.17         22.01GVET175V06
     K23T06Y KC2023 10 11.46558306 23 54.870+33 04 04.22         23.11GVET175V06
     K23T06Y KC2023 10 11.46897906 23 55.284+33 04 05.84         21.12GVET175V06
     K23T06Y KC2023 10 11.47237306 23 55.698+33 04 07.57         21.95GVET175V06
     K23T06Y  C2023 10 11.47330606 23 55.747+33 04 07.71         22.6 GVET175H01
     K23T06Y  C2023 10 11.48029606 23 56.592+33 04 11.16         22.4 GVET175H01
     K23T06Y  C2023 10 11.59544806 24 11.492+33 05 11.04         21.72wXET175F52
     K23T06Y  C2023 10 11.60325206 24 12.418+33 05 14.72         21.30wXET175F52
     K23T06Y  C2023 10 11.61895506 24 14.314+33 05 22.79         21.29wXET175F52
Observer details:
F52 Pan-STARRS 2, Haleakala.  Observers J. Bulger, T. Lowe, P. Minguez, A.
    Schultz, I. Smith.  Measurers K. Chambers, T. de Boer, J. Bulger, J.
    Fairlamb, H. Gao, M. Huber, C.-C. Lin, T. Lowe, E. Magnier, P. Minguez, Y.
    Ramanjooloo, A. Schultz, I. Smith, R. Wainscoat, R. Weryk.  1.8-m Ritchey-
    Chretien + CCD.
G96 Mt. Lemmon Survey.  Observer K. W. Wierzchos.  Measurers B. Gray, D.
    Rankin, F. C. Shelly, E. C. Beshore, D. Fay, J. B. Fazekas, D. C. Fuls, A.
    R. Gibbs, A. D. Grauer, H. Groeller, J. K. Hogan, R. A. Kowalski, S. M.
    Larson, G. J. Leonard, R. L. Seaman, K. W. Wierzchos.  1.5-m reflector +
    10K CCD.
H01 Magdalena Ridge Observatory, Socorro.  Observers W. H. Ryan, E. V. Ryan.
    Measurer W. H. Ryan.  2.4-m f/8.9 Ritchey-Chretien + CCD.
I52 Steward Observatory, Mt. Lemmon Station.  Observer J. B. Fazekas.
    Measurers E. C. Beshore, D. Fay, J. B. Fazekas, D. C. Fuls, A. R. Gibbs,
    A. D. Grauer, H. Groeller, J. K. Hogan, R. A. Kowalski, S. M. Larson, G.
    J. Leonard, D. Rankin, R. L. Seaman, F. C. Shelly, K. W. Wierzchos.  1.0-m
    prime focus + CCD.
V06 Catalina Sky Survey-Kuiper.  Observer J. B. Fazekas.  Measurers E. C.
    Beshore, D. Fay, J. B. Fazekas, D. C. Fuls, A. R. Gibbs, A. D. Grauer, H.
    Groeller, J. K. Hogan, R. A. Kowalski, S. M. Larson, G. J. Leonard, D.
    Rankin, R. L. Seaman, F. C. Shelly, K. W. Wierzchos.  1.55-m reflector +
    1K CCD.
Orbital elements:
2023 TY6                                                 Earth MOID = 0.1653 AU
Epoch 2023 Sept. 13.0 TT = JDT 2460200.5                Veres                   
M   2.29027              (2000.0)            P               Q                  
n   0.23433512     Peri.   12.48509     +0.98989269     -0.14160048             
a   2.6056203      Node   355.63240     +0.11962132     +0.86344130             
e   0.5525186      Incl.    5.92338     +0.07617875     +0.48416776             
P   4.21           H   20.68          G   0.15           U   9                  
Residuals in seconds of arc
230924 G96  0.6+  0.5-    231009 I52  0.3+  0.1+    231011 V06  0.0   0.1-
230924 G96  0.5-  0.2-    231010 I52  0.1+  0.7-    231011 V06  0.0   0.0
231009 G96  0.1-  0.1-    231010 I52  0.1-  0.1+    231011 H01  0.0   0.1-
231009 G96  0.1+  0.2-    231011 H01  0.0   0.1-    231011 H01  0.1-  0.1-
231009 G96  0.1+  0.1+    231011 V06  0.3+  0.2-    231011 F52  0.0   0.1-
231009 I52  0.2-  0.1-    231011 H01  0.2+  0.1-    231011 F52  0.2-  0.3-
231009 I52  0.4+  0.1-    231011 V06  0.2+  0.3-    231011 F52  0.2-  0.1-
231009 I52  0.1-  0.1+    231011 V06  0.0   0.0
Ephemeris:
2023 TY6                 a,e,i = 2.61, 0.55, 6                   q = 1.1660
Date    TT    R. A. (2000) Decl.     Delta      r    Elong.  Phase     V
2023 09 12    04 56 13.5 +27 10 48   0.5494  1.1706    92.8    59.2    21.8
...
2023 09 27    05 46 33.8 +30 44 43   0.5590  1.1992    96.2    56.2    21.8
...
2023 10 05    06 08 45.4 +32 07 34   0.5640  1.2243    99.2    53.8    21.8
...
2023 10 11    06 22 54.3 +33 00 14   0.5672  1.2471   102.0    51.5    21.8
2023 10 12    06 25 02.4 +33 08 26   0.5677  1.2512   102.6    51.1    21.8
2023 10 13    06 27 06.4 +33 16 28   0.5681  1.2554   103.1    50.7    21.8
...
2023 10 19    06 38 04.7 +34 02 21   0.5704  1.2823   106.7    48.1    21.8
...
2023 10 27    06 48 42.5 +34 59 08   0.5730  1.3223   112.3    44.1    21.8
...
2023 11 11    06 55 27.9 +36 37 43   0.5795  1.4074   125.4    35.0    21.7
M. P. C. Staff               (C) Copyright 2023 MPC           M.P.E.C. 2023-T175
    
    
More information about the Iaude
mailing list